map of OMS home
Great Circle Mapper logo
OMS - Airport
Location
City:  Omsk, Russian Federation (Russia)
Name:Tsentralny
ICAO / IATA:UNOO / OMS

Details
Type:Airport (Aerodrome, Airfield)
Use:Public/Civil
Latitude:5458'01"N (54.967042)
Longitude:7318'38"E (73.310514)
Datum:WGS 1984
Elevation:311 ft (95 m)
Runways:3
Longest:9435 × 235 ft (2876 × 71.5 m)

Time
Time Zone:UTC+6 (DST+7)

Weather
METAR:UNOO 241030Z 27007MPS 6000 -SHSN BLSN SCT013 BKN026CB M02/M05 Q1007 25290050 NOSIG RMK QFE747
TAF:UNOO 240750Z 2409/2509 25006MPS 3000 -SHSN BKN020CB 650200 530002 TM00/2409Z
TEMPO 2409/2415 28011MPS 1000 SHSN BLSN BKN005 BKN020CB

Related Locations
Nearby:
Farthest:PNT: 11019 mi / 17733 km
Puerto Natales [Teniente Julio Gallardo], MA, CL

Find:

   beyond  
but within

Other Information
Maps:
NOTAMs:
Links:
Sources:

  
flag of Russian Federation (Russia)   

Sectional Chart

Flight Planning
at skyvector.com

Satellite Image

Google Maps Satellite View

 

Copyright © 2004-2014 Karl L. Swartz. All rights reserved.
The Great Circle Mapper name and logo are trademarks of the Great Circle Mapper.
All other trademarks mentioned herein belong to their respective owners.
Please see credits for attibutions and further copyright information.

  Follow gcmap on Facebook Follow gcmap on Twitter

hCard Microformat

Geo Microformat